Date String (YYYY-MM-DD hh:mm:ss) UTC,Instrument flags,Ambient pressure (hPa),Sample flow (lpm),Bypass flow (lpm),Sample temperature (°C),Ambient temperature (°C),ASC tube jacket temperature (°C),LED temperature (°C),Box temperature (°C),Sample RH (%),Span deviation,Mass concentration (μg/m³),Mass concentration (μg/m³),Mass concentration (μg/m³)
DateTimeUTC,F1_M11,P_M11,Q1_M11,Q2_M11,T1_M11,T2_M11,T3_M11,T4_M11,T5_M11,U1_M11,ZSPAN_M11,X0_M11,X2_M11,X1_M11
2022-08-10 12:00:00,,0833.8,5.00,0.00,29.7,28.6,00.0,38.6,31.7,26.7,0000.0,0012.93,0005.77,0004.90
2022-08-10 12:01:00,,0833.8,4.99,0.00,29.8,28.6,00.0,38.6,31.7,26.6,0000.0,0013.45,0005.73,0004.90
2022-08-10 12:02:00,,0833.8,5.00,0.00,29.8,28.7,00.0,38.6,31.7,26.3,0000.0,0013.58,0005.69,0004.91
2022-08-10 12:03:00,,0833.9,5.01,0.00,29.8,28.7,00.0,38.6,31.8,26.0,0000.0,0013.74,0005.69,0004.91
2022-08-10 12:04:00,,0833.8,5.00,0.00,29.8,28.8,00.0,38.6,31.7,26.0,0000.0,0013.32,0005.73,0004.90
2022-08-10 12:05:00,,0833.8,5.00,0.00,29.8,28.8,00.0,38.6,31.7,26.0,0000.0,0013.22,0005.75,0004.90
2022-08-10 12:06:00,,0833.9,5.00,0.00,29.9,28.8,00.0,38.6,31.8,26.0,0000.0,0013.02,0005.70,0004.89
2022-08-10 12:07:00,,0833.9,5.00,0.00,29.9,28.8,00.0,38.6,31.8,25.9,0000.0,0012.81,0005.63,0004.87
2022-08-10 12:08:00,,0833.9,5.00,0.00,29.9,28.9,00.0,38.7,31.9,25.9,0000.0,0012.24,0005.59,0004.86
2022-08-10 12:09:00,,0833.9,5.01,0.00,29.9,28.9,00.0,38.7,31.9,25.8,0000.0,0012.35,0005.56,0004.85
2022-08-10 12:10:00,,0833.9,5.00,0.00,30.0,28.9,00.0,38.7,31.9,25.6,0000.0,0012.29,0005.56,0004.84
2022-08-10 12:11:00,,0833.9,5.00,0.00,30.0,29.0,00.0,38.7,31.9,25.6,0000.0,0011.69,0005.52,0004.81
2022-08-10 12:12:00,,0833.8,5.00,0.00,30.0,29.0,00.0,38.7,31.9,25.5,0000.0,0011.66,0005.53,0004.80
2022-08-10 12:13:00,,0833.8,5.00,0.00,30.0,29.0,00.0,38.7,32.0,25.4,0000.0,0011.84,0005.55,0004.79
2022-08-10 12:14:00,,0833.8,4.98,0.00,30.0,29.0,00.0,38.8,32.0,25.3,0000.0,0011.65,0005.54,0004.78
2022-08-10 12:15:00,,0833.8,5.00,0.00,30.1,29.1,00.0,38.8,32.0,25.3,0000.0,0011.57,0005.51,0004.77
2022-08-10 12:16:00,,0833.8,5.01,0.00,30.0,28.6,00.0,38.8,31.8,25.3,0000.0,0011.51,0005.54,0004.77
2022-08-10 12:17:00,,0833.8,5.00,0.00,30.0,27.8,00.0,38.7,31.7,25.4,0000.0,0011.81,0005.56,0004.77
2022-08-10 12:18:00,,0833.7,5.00,0.00,29.9,27.6,00.0,38.7,31.5,25.5,0000.0,0011.92,0005.62,0004.77
2022-08-10 12:19:00,,0833.7,5.01,0.00,29.8,27.6,00.0,38.7,31.4,25.7,0000.0,0012.02,0005.61,0004.77
2022-08-10 12:20:00,,0833.8,4.98,0.00,29.8,27.7,00.0,38.6,31.5,25.8,0000.0,0012.00,0005.62,0004.76
2022-08-10 12:21:00,,0833.8,5.00,0.00,29.7,27.8,00.0,38.6,31.5,25.8,0000.0,0011.73,0005.62,0004.75
2022-08-10 12:22:00,,0833.8,5.00,0.00,29.7,27.9,00.0,38.6,31.5,25.8,0000.0,0011.30,0005.60,0004.75
2022-08-10 12:23:00,,0833.8,5.02,0.00,29.7,28.0,00.0,38.6,31.5,25.8,0000.0,0010.92,0005.56,0004.73
2022-08-10 12:24:00,,0833.9,5.00,0.00,29.7,28.1,00.0,38.6,31.6,25.8,0000.0,0010.52,0005.51,0004.71
2022-08-10 12:25:00,,0833.8,5.00,0.00,29.7,28.2,00.0,38.6,31.6,25.8,0000.0,0010.49,0005.50,0004.70
2022-08-10 12:26:00,,0833.9,5.00,0.00,29.7,28.3,00.0,38.6,31.6,25.8,0000.0,0010.47,0005.47,0004.68
2022-08-10 12:27:00,,0833.9,5.00,0.00,29.7,28.4,00.0,38.6,31.7,25.9,0000.0,0010.47,0005.41,0004.66
2022-08-10 12:28:00,,0833.9,5.00,0.00,29.8,28.5,00.0,38.6,31.7,26.0,0000.0,0010.60,0005.39,0004.64
2022-08-10 12:29:00,,0833.9,5.00,0.00,29.8,28.6,00.0,38.6,31.7,26.0,0000.0,0010.99,0005.36,0004.62
2022-08-10 12:30:00,,0833.9,5.00,0.00,29.8,28.6,00.0,38.6,31.7,26.0,0000.0,0011.63,0005.36,0004.59
2022-08-10 12:31:00,,0833.8,5.00,0.00,29.8,28.7,00.0,38.6,31.8,26.0,0000.0,0011.74,0005.34,0004.58
2022-08-10 12:32:00,,0833.9,5.00,0.00,29.8,28.7,00.0,38.6,31.7,25.8,0000.0,0011.90,0005.31,0004.57
2022-08-10 12:33:00,,0833.9,5.01,0.00,29.9,28.8,00.0,38.6,31.7,25.8,0000.0,0012.05,0005.34,0004.56
2022-08-10 12:34:00,,0834.0,4.99,0.00,29.9,28.8,00.0,38.7,31.8,25.8,0000.0,0011.74,0005.35,0004.57
2022-08-10 12:35:00,,0834.0,5.00,0.00,29.9,28.9,00.0,38.7,31.8,25.8,0000.0,0011.70,0005.37,0004.58
2022-08-10 12:36:00,,0834.0,5.00,0.00,29.9,28.9,00.0,38.7,31.9,26.2,0000.0,0011.86,0005.37,0004.57
2022-08-10 12:37:00,,0834.0,5.01,0.00,29.9,28.9,00.0,38.7,31.9,25.7,0000.0,0012.53,0005.44,0004.57
2022-08-10 12:38:00,,0834.0,5.00,0.00,30.0,29.0,00.0,38.7,31.9,25.8,0000.0,0012.35,0005.48,0004.57
2022-08-10 12:39:00,,0834.0,4.99,0.00,30.0,29.0,00.0,38.7,31.9,26.0,0000.0,0011.90,0005.45,0004.57
2022-08-10 12:40:00,,0834.0,5.01,0.00,30.0,29.0,00.0,38.7,31.9,25.7,0000.0,0011.30,0005.40,0004.56
2022-08-10 12:41:00,,0834.0,4.99,0.00,30.0,29.1,00.0,38.8,32.0,25.5,0000.0,0010.50,0005.37,0004.56
2022-08-10 12:42:00,,0834.0,5.00,0.00,30.0,29.1,00.0,38.8,32.0,26.6,0000.0,0010.13,0005.35,0004.56
2022-08-10 12:43:00,,0834.0,5.00,0.00,30.1,29.1,00.0,38.8,32.0,26.8,0000.0,0009.86,0005.34,0004.56
2022-08-10 12:44:00,,0834.0,5.00,0.00,30.1,28.9,00.0,38.8,32.0,26.2,0000.0,0009.80,0005.34,0004.57
2022-08-10 12:45:00,,0834.0,4.99,0.00,30.1,28.2,00.0,38.8,31.9,26.0,0000.0,0009.86,0005.39,0004.57
2022-08-10 12:46:00,,0834.0,5.01,0.00,30.0,27.9,00.0,38.8,31.7,25.7,0000.0,0009.93,0005.46,0004.58
2022-08-10 12:47:00,,0834.0,5.00,0.00,29.9,27.9,00.0,38.7,31.7,25.9,0000.0,0009.76,0005.47,0004.59
2022-08-10 12:48:00,,0834.1,4.99,0.00,29.9,28.0,00.0,38.7,31.6,26.0,0000.0,0009.22,0005.44,0004.59
2022-08-10 12:49:00,,0834.1,5.01,0.00,29.9,28.0,00.0,38.7,31.6,26.0,0000.0,0009.12,0005.42,0004.59
2022-08-10 12:50:00,,0834.1,5.00,0.00,29.8,28.2,00.0,38.7,31.7,26.0,0000.0,0009.27,0005.42,0004.60
2022-08-10 12:51:00,,0834.0,5.00,0.00,29.8,28.3,00.0,38.7,31.7,26.2,0000.0,0009.29,0005.46,0004.62
2022-08-10 12:52:00,,0834.1,4.99,0.00,29.9,28.4,00.0,38.7,31.7,26.1,0000.0,0009.62,0005.45,0004.61
2022-08-10 12:53:00,,0834.1,4.99,0.00,29.9,28.5,00.0,38.7,31.8,26.3,0000.0,0010.45,0005.49,0004.62
2022-08-10 12:54:00,,0834.1,5.00,0.00,29.9,28.6,00.0,38.7,31.8,26.2,0000.0,0010.59,0005.50,0004.62
2022-08-10 12:55:00,,0834.1,5.00,0.00,29.9,28.6,00.0,38.7,31.7,26.1,0000.0,0011.49,0005.52,0004.63
2022-08-10 12:56:00,,0834.1,5.00,0.00,29.9,28.7,00.0,38.7,31.8,26.0,0000.0,0012.12,0005.51,0004.65
2022-08-10 12:57:00,,0834.1,4.99,0.00,29.9,28.8,00.0,38.7,31.8,25.9,0000.0,0012.01,0005.47,0004.67
2022-08-10 12:58:00,,0834.1,5.00,0.00,29.9,28.8,00.0,38.7,31.9,25.9,0000.0,0012.00,0005.48,0004.68
2022-08-10 12:59:00,,0834.0,5.01,0.00,30.0,28.9,00.0,38.8,31.9,25.8,0000.0,0011.99,0005.52,0004.70
